Location: Ayer Observatory
(42.2600°N, 71.0700°W)
Time: 09:01:39
(UTC-04:00)

XW-2A - Pass Details

Date: 15 August 2020
Orbit: 428 x 443 km, 97.3° (Epoch: 21 September)

Event Time Altitude Azimuth Distance (km) Brightness Sun altitude
Exits shadow 20:32:07 12° 127° (SE) 1,393 ? -8.9°
Maximum altitude 20:34:33 27° 71° (ENE) 862 ? -9.3°
Drops below altitude 10° 20:37:23 10° 12° (NNE) 1,535 ? -9.8°
Sets 20:39:34 0° 360° (N) 2,407 ? -10.1°
